www.pogodaiklimat.ru

Погода и климат >> Архив погоды >> Канада >> Waterloo Wellington


ПОГОДА в Waterloo Wellington

  • Прогноз погоды в Waterloo Wellington
  • Монитор погоды в Waterloo Wellington
  • Климат города

АРХИВ ПОГОДЫ в Waterloo Wellington

Время (UTC), дата Ветер
(напр.,м/с)
 
Видим.   Явления Облачность Т
(С)
Тd
(С)
f
(%)
Тe
(С)
Тes
(С)
Комфортность P
(гПа)
Po
(гПа)
Тmin
(С)
Tmax
(С)
R
(мм)
R24
(мм)
S
(см)
00 14.05 ЮВ 4 16 км ясно +17.0 +9.5 61 +17 +17 1014.5 976.3 +4.8 +20.8
03 14.05 ЮЗ 3 16 км ясно +12.9 +9.9 82 +12 +12 1015.0 976.8
06 14.05 ЮЗ 2 16 км ясно +9.6 +9.3 98 +8 +8 1014.4 976.2 +4.8 +20.8 16
09 14.05 Ю 1 3200 м дымка ясно +8.3 +8.3 100 +8 +8 1014.2 976.1
12 14.05 СЗ 2 4800 м дымка ясно +12.3 +12.3 100 +11 +14 1014.4 976.3 +5.9 +20.8
15 14.05 З 4 16 км ясно +19.9 +13.9 68 +22 +31 комфорт 1014.7 976.7
18 14.05 Ю 4 16 км 10/0
[]
+20.2 +13.4 65 +22 +29 комфорт 1013.8 975.7 +5.9 +21.6
21 14.05 Ю 1 4800 м дым 3/0
[]
+22.4 +14.1 59 +26 +34 жарко 1009.9 972.0
00 15.05 ЮЗ 8 9000 м дым 10/10 1000 м
[]
+19.2 +15.1 77 +20 +20 1011.6 973.6 +5.9 +22.8
03 15.05 ЮЗ 2 16 км 10/10 1000 м
[]
+17.6 +14.3 81 +18 +18 1010.9 973.2
06 15.05 Ю 3 8000 м дымка 10/10 1000 м
[]
+15.8 +14.9 94 +15 +15 1009.0 971.3 +5.9 +22.8 1
09 15.05 ЮЗ 4 6000 м слаб. дождь {осадки} 10/10 200 м
[]
+16.5 +16.5 100 +16 +16 1008.3 970.7
12 15.05 З 5 4800 м дождь {осадки} 10/10 300 м
[]
+17.4 +17.2 99 +17 +17 1008.9 971.2 +15.3 +22.8 8
15 15.05 С 4 16 км {осадки} 10/10 1500 м
[]
+15.7 +13.7 88 +15 +15 1011.4 973.5
18 15.05 Ю 2 16 км {осадки} 10/0
[]
+16.8 +14.7 87 +17 +27 1013.5 975.5 +13.8 +17.4 3
21 15.05 СЗ 4 16 км 5/5 1000 м
[]
+20.8 +12.9 61 +23 +27 комфорт 1013.9 976.1
00 16.05 С 4 16 км ясно +17.8 +12.0 69 +18 +18 1015.2 977.2 +13.8 +20.9
03 16.05 С 2 16 км ясно +12.9 +7.4 69 +13 +13 1017.5 979.2
06 16.05 СЗ 1 16 км ясно +8.6 +8.5 99 +8 +8 1017.9 979.5 +8.5 +20.9 13
09 16.05 С 1 16 км ясно +5.6 +5.6 100 +5 +5 1017.2 978.9
12 16.05 В 2 16 км ясно +11.1 +5.7 69 +10 +13 1018.5 980.2 +4.6 +20.9
15 16.05 В 2 16 км ясно +18.4 +9.9 58 +19 +35 опасность
простуды
1018.1 979.9
18 16.05 Ю 3 16 км ясно +22.3 +9.2 43 +24 +39 комфорт 1016.2 978.1 +4.6 +22.3
21 16.05 ЮЗ 2 16 км ясно +24.0 +8.7 38 +25 +34 комфорт 1015.0 976.9
00 17.05 ЮЗ 2 16 км ясно +21.6 +9.4 46 +23 +23 комфорт 1014.6 976.6 +4.6 +24.2
03 17.05 В 1 16 км ясно +14.0 +11.9 87 +15 +15 1015.7 977.6
06 17.05 З 1 16 км ясно +12.0 +11.4 96 +12 +12 1015.4 977.4 +4.6 +24.2
09 17.05 С 1 6000 м дымка ясно +9.8 +9.8 100 +9 +9 1015.3 977.3
12 17.05 СЗ 3 12 км ясно +16.1 +13.5 85 +16 +18 1016.2 978.3 +9.0 +24.2
15 17.05 СЗ 3 16 км ясно +22.5 +12.3 52 +25 +38 комфорт 1017.4 979.4
18 17.05 С 4 16 км ясно +24.9 +8.3 35 +25 +39 комфорт 1018.1 980.1 +9.0 +25.1
21 17.05 С 5 16 км ясно +24.3 +8.7 37 +25 +29 комфорт 1018.3 980.2
00 18.05 С 4 16 км ясно +19.7 +7.4 45 +21 +21 комфорт 1019.9 981.8 +9.0 +25.4
03 18.05 С 2 16 км ясно +13.4 +4.4 54 +13 +13 1022.7 984.5
06 18.05 СВ 5 16 км ясно +12.1 +0.3 44 +10 +10 1023.6 985.4 +9.0 +25.4
09 18.05 В 5 16 км ясно +8.2 +1.6 63 +5 +5 1024.5 986.1
12 18.05 В 8 16 км ясно +10.5 -3.2 38 +7 +8 1025.6 987.1 +7.6 +25.4
15 18.05 В 9 16 км ясно +13.6 +0.5 41 +11 +13 1027.3 988.6
18 18.05 В 8 16 км ясно +15.2 +1.1 38 +13 +16 1026.0 987.4 +7.6 +15.3
21 18.05 В 8 16 км ясно +15.3 -1.0 33 +14 +15 1023.9 985.2
00 19.05 В 8 16 км ясно +12.9 -2.3 35 +10 +11 1023.1 984.4 +7.6 +16.0
03 19.05 В 7 16 км 10/0
[]
+12.8 -2.6 34 +10 +10 1022.3 983.8
06 19.05 В 8 16 км 10/0
[]
+12.5 +0.6 44 +10 +10 1020.6 982.2 +7.6 +16.0 141
09 19.05 В 4 16 км слаб. дождь 10/10 600 м
[]
+9.8 +5.8 76 +7 +7 1018.7 980.3
12 19.05 В 4 3600 м слаб. дождь {осадки} 10/10 100 м
[]
+10.1 +10.1 100 +7 +7 1017.3 978.8 +8.4 +16.0 6
15 19.05 ЮВ 5 12 км {осадки} 10/10 100 м
[]
+13.5 +13.4 99 +12 +12 1015.4 977.1
18 19.05 ЮВ 4 9000 м дымка {осадки} 10/10 100 м
[]
+15.3 +14.8 97 +14 +14 1013.5 975.4 +8.4 +15.4 2
21 19.05 Ю 5 16 км 10/10 300 м
[]
+19.6 +16.8 84 +22 +22 комфорт 1010.9 972.9
00 20.05 Ю 4 16 км 10/10 600 м
[]
+19.9 +17.9 88 +23 +23 комфорт 1010.1 972.2 +8.4 +21.0
03 20.05 ЮЗ 4 3600 м сильн. дождь 10/10 300 м
[]
+18.4 +18.2 99 +19 +19 1010.7 972.8
06 20.05 СЗ 4 16 км {осадки} 10/10 300 м
[]
+13.8 +13.2 96 +12 +12 1011.7 973.7 +8.4 +21.0 6 71
09 20.05 СЗ 6 16 км 10/10 100 м
[]
+11.4 +11.3 99 +8 +8 1013.7 975.7
12 20.05 СЗ 5 16 км 10/10 100 м
[]
+11.7 +11.2 97 +9 +9 1016.8 978.7 +11.2 +21.0
15 20.05 СЗ 3 16 км 9/9 300 м
[]
+15.3 +12.2 82 +15 +16 1019.2 981.0
18 20.05 СЗ 4 16 км 5/5 600 м
[]
+17.5 +12.1 71 +17 +23 1020.3 982.0 +11.2 +17.5

 

Местоположение метеостанции Waterloo Wellington (Канада): широта 43.45 долгота -80.38 высота над уровнем моря 317 м.

В архиве по умолчанию представлена погода в Waterloo Wellington за последнюю неделю. Архивные данные за месяц целиком и за предыдущие месяцы, начиная с января 2011 года, Вы можете получить, выбрав интересующий диапазон дат из раскрывающегося списка и нажав кнопку "Ввод!".


*Определитесь, кто Вы:
робот инопланетянин человек

Внимание! Время в таблицах - всемирное. Для получения местного времени необходимо прибавить поправку, которая в Waterloo Wellington равна -5 ч.

Смотрите также архив погоды в соседних городах и на ближайших метеорологических станциях:

Погода в Guelph Turfgrass (Канада) (17 км)
Погода в Elora Rcs (Канада) (22 км)
Погода в Brantford Airport (Канада) (36 км)
Погода в Hamilton Rbg Cs (Канада) (43 км)
Погода в Hamilton Airport (Канада) (48 км)
Погода в Burlington Piers (Канада) (50 км)
Погода в Toronto (Канада) (65 км)
Погода в Delhi (Канада) (66 км)
Погода в Mount Forest (Канада) (66 км)
Погода в Simcoe (Канада) (67 км)

Пояснения к столбцам:

Ветер - указаны скорость ветра в м/с - средняя за 10 мин, порывы в срок и между сроками (в фигурных скобках) и направление, откуда дует ветер: С - северный, СВ - северо-восточный, В - восточный, ЮВ - юго-восточный, Ю - южный, ЮЗ - юго-западный, З - западный, СЗ - северо-западный.
Видимость - горизонтальная дальность видимости в метрах или километрах. При видимости от 1 до 10 км при отсутствии осадков обычно наблюдается дымка, при ухудшении видимости до 1 км и менее - туман. В сухую погоду видимость может ухудшаться дымом, пылью или мглою.
Явления - указаны атмосферные явления, наблюдавшиеся в срок или в последний час перед сроком; фигурными скобками обозначены явления, наблюдавшиеся между сроками (за 1-3 часа до срока); квадратными скобками обозначены град или гололедные отложения с указанием их диаметра в мм.
Облачность - указаны через наклонную черту общая и нижняя облачность в баллах и высота нижней границы облаков в метрах; квадратными скобками обозначены формы облаков: Ci - перистые, Cs - перисто-слоистые, Cc - перисто-кучевые, Ac - высококучевые, As - высокослоистые, Sc - слоисто-кучевые, Ns - слоисто-дождевые, Cu - кучевые, Cb - кучево-дождевые. Подробнее классификацию облаков см. в Атласе облаков (PDF).
T - Температура воздуха - температура, измеренная на высоте 2 м над землей.
Td - Температура точки росы - температура, при понижении до которой содержащийся в воздухе водяной пар достигнет насыщения.
f - Относительная влажность воздуха - влажноcть воздуха, измеренная на высоте 2 м над землей.
Te - Эффективная температура - температура, которую ощущает одетый по сезону человек в тени. Характеристика душности погоды. При расчете учитывается влияние влажности воздуха и скорости ветра на теплоощущения человека.
Tes - Эффективная температура на солнце - температура, которую ощущает человек, с поправкой на солнечный нагрев. Характеристика знойности погоды. Зависит от высоты солнца над горизонтом, облачности и скорости ветра. Ночью, в пасмурную погоду, а также при ветре 12 м/с и более поправка равна нулю.
P - Атмосферное давление - приведенное к уровню моря атмосферное давление.
Po - Атмосферное давление - измеренное на уровне метеостанции атмосферное давление.
Tmin - Минимальная температура - минимум температуры воздуха на высоте 2 м над землей.
Tmax - Максимальная температура - максимум температуры воздуха на высоте 2 м над землей.
R - Количество осадков - Количество выпавших осадков за период времени, мм. При наведении курсора мыши на число - период времени, за который выпало указанное количество осадков.
R24 - Количество осадков - Количество выпавших осадков за 24 часа, мм.
S - Снежный покров - Высота снежного покрова, см. При наведении курсора мыши на число - состояние снежного покрова и степень покрытия местности в баллах.